This demonstration page uses our WeatherBlox Daily Observations layout. Learn more.

Left ArrowRight Arrow

Hourly Observations for July 10, 2021

Temp ( °F °C ) Dew Point ( °F °C ) Humidity (%) Winds ( mph kmh ) Pressure ( in mb ) Visibility ( mi km ) Precip ( " mm )
12:56 am 00:56 Clear 66 18.9 62 16.7 87 87 SE 5 7 29.84 1011 10 16 0.00 0.00
1:56 am 01:56 Mostly Clear with Light Rain 65 18.3 63 17.2 93 93 NNE 6 9 29.87 1012 10 16 0.00 0.00
2:56 am 02:56 Cloudy with Rain 67 19.4 64 17.8 91 91 NW 25 41 30.02 1017 10 16 0.06 1.52
3:03 am 03:03 Cloudy with Light Rain 68 20 64 18 88 88 NNW 22 35 30.02 1016 10 16 0.00 0.00
3:56 am 03:56 Cloudy with Rain 66 18.9 63 17.2 90 90 N 24 39 29.96 1015 10 16 0.03 0.76
4:56 am 04:56 Cloudy with Light Rain 66 18.9 63 17.2 90 90 ENE 26 43 29.82 1010 10 16 0.03 0.76
5:03 am 05:03 Mostly Cloudy with Light Rain 64 18 63 17 94 94 ENE 20 31 29.84 1011 10 16 0.00 0.00
5:56 am 05:56 Clear 66 18.9 61 16.1 84 84 S 8 13 29.85 1011 10 16 0.00 0.00
6:56 am 06:56 Sunny 67 19.4 60 15.6 79 79 NNW 16 26 29.92 1013 10 16 0.00 0.00
7:56 am 07:56 Sunny 68 20 61 16.1 78 78 NW 12 19 29.94 1014 10 16 0.00 0.00
8:56 am 08:56 Sunny 69 20.6 63 17.2 81 81 NW 14 22 29.97 1015 10 16 0.00 0.00
9:52 am 09:52 Mostly Cloudy 72 22 64 18 78 78 NNW 20 31 29.94 1014 10 16 0.00 0.00
9:56 am 09:56 Mostly Cloudy 71 21.7 65 18.3 81 81 NNW 21 33 29.97 1015 10 16 0.00 0.00
10:20 am 10:20 Partly Cloudy 73 23 64 18 74 74 NNW 12 19 29.92 1013 10 16 0.00 0.00
10:45 am 10:45 Mostly Cloudy 73 23 66 19 78 78 NNW 13 20 29.92 1013 10 16 0.00 0.00
10:56 am 10:56 Mostly Cloudy 75 23.9 66 18.9 74 74 NNW 16 26 29.98 1015 10 16 0.00 0.00
11:28 am 11:28 Partly Cloudy 77 25 64 18 65 65 NNW 16 26 29.91 1013 10 16 0.00 0.00
11:56 am 11:56 Mostly Cloudy 77 25 65 18.3 66 66 NNW 17 28 29.97 1015 10 16 0.00 0.00
12:56 pm 12:56 Mostly Cloudy 78 25.6 64 17.8 62 62 NNW 15 24 29.96 1015 10 16 0.00 0.00
1:56 pm 13:56 Partly Cloudy 81 27.2 63 17.2 54 54 NNW 17 28 29.96 1014 10 16 0.00 0.00
2:54 pm 14:54 Mostly Cloudy with Nearby Thunderstorms 70 21 64 18 83 83 N 13 20 29.95 1014 10 16 0.04 1.02
2:56 pm 14:56 Mostly Cloudy with Nearby Thunderstorms 70 21.1 65 18.3 84 84 N 13 20 29.98 1015 10 16 0.04 1.02
3:09 pm 15:09 Mostly Sunny 72 22 64 18 78 78 N 17 28 29.93 1014 10 16 0.00 0.00
3:56 pm 15:56 Partly Cloudy 74 23.3 67 19.4 79 79 N 18 30 29.98 1015 10 16 0.00 0.00
4:56 pm 16:56 Mostly Cloudy 77 25 64 17.8 64 64 N 17 28 29.98 1015 10 16 0.00 0.00
5:56 pm 17:56 Mostly Sunny 77 25 62 16.7 60 60 N 18 30 29.98 1015 10 16 0.00 0.00
6:56 pm 18:56 Sunny 76 24.4 63 17.2 64 64 N 15 24 29.98 1015 10 16 0.00 0.00
7:56 pm 19:56 Sunny 75 23.9 61 16.1 62 62 N 16 26 29.98 1015 10 16 0.00 0.00
8:56 pm 20:56 Mostly Sunny 69 20.6 63 17.2 81 81 N 10 17 30.00 1016 10 16 0.00 0.00
9:56 pm 21:56 Clear 67 19.4 62 16.7 84 84 N 12 19 30.02 1017 10 16 0.00 0.00
10:56 pm 22:56 Clear 66 18.9 61 16.1 84 84 NNW 9 15 30.04 1017 10 16 0.00 0.00

Powered by AerisWeather